[[{"header":{"parameterUnit":"m.s-1","parameterCategory":1,"la1":30.2991,"la2":30.254,"lo1":-89.0895,"lo2":-89.0444,"dy":0.0017,"dx":0.0017,"nx":28,"ny":28,"refTime":"2025-09-16T03:00:00:Z","depth":0,"parameterNumber":2,"parameterNumberName":"U-component_of_WINDS"},"data":[0,0,0,0,0,0,0,0,0,0,0,0,0,0,0,0,0,0,0,0,0,0,0,0,0,0,0,0,0,0,0,0,0,0,0,0,0,0,0,0,0,0,0,0,0,0,0,0,0,0,0,0,0,0,0,0,0,0,1.9367,1.9367,0,1.935,1.935,1.9349,1.9306,1.9305,1.9304,1.9303,1.9283,1.9284,1.9284,0,0,0,0,0,0,0,0,0,0,0,0,0,1.9359,1.9359,1.9367,1.9367,1.9367,1.935,1.935,1.9349,1.9306,1.9305,1.9304,1.9303,1.9283,1.9284,1.9284,0,0,0,0,0,0,0,0,0,0,0,0,0,1.9354,1.9359,1.9367,1.9343,1.9341,1.935,1.935,1.9349,1.9306,1.9305,1.9303,1.9302,1.9283,1.9284,1.9284,1.9315,0,0,1.9286,1.9286,0,0,0,0,0,0,0,0,1.9354,1.9354,1.9347,1.9345,1.9342,1.9329,1.9339,1.9338,1.9306,1.9319,1.9303,1.9301,1.9299,1.9299,1.9298,1.9314,1.9313,1.9286,1.9286,1.9286,1.9286,0,0,0,0,0,0,0,1.9355,1.9355,1.936,1.9347,1.9344,1.9332,1.933,1.9339,1.9317,1.9318,1.9315,1.9313,1.9298,1.9298,1.9297,1.9313,1.9286,1.9286,1.9287,1.9287,1.9348,1.9349,0,0,0,0,0,0,1.9359,1.9355,1.9361,1.936,1.9345,1.9333,1.9331,1.9334,1.9317,1.9313,1.9315,1.9311,1.9298,1.9297,1.9297,1.9328,1.9286,1.9287,1.9287,1.9347,1.9348,1.935,0,0,0,0,0,0,1.9359,1.936,1.9362,1.9357,1.9356,1.9335,1.9339,1.9335,1.9335,1.9315,1.931,1.9319,1.9297,1.9296,1.931,1.9327,1.9287,1.9287,1.9345,1.9347,1.9349,1.9393,0,0,0,0,0,0,1.9359,1.936,1.9373,1.9357,1.9356,1.9376,1.934,1.9335,1.9336,1.9331,1.9317,1.9314,1.9295,1.9309,1.931,1.9327,1.9288,1.9343,1.9346,1.9348,1.939,1.9397,1.9402,0,0,0,0,0,1.9359,1.9386,1.9374,1.9375,1.9372,1.9378,1.9377,1.9356,1.9338,1.9349,1.9335,1.9314,1.9325,1.9311,1.9312,1.9329,1.9342,1.9345,1.9348,1.9388,1.9395,1.9402,0,0,0,0,0,0,1.9405,1.9384,1.937,1.9394,1.9388,1.937,1.9384,1.9366,1.9364,1.936,1.9334,1.9331,1.9348,1.934,1.9324,1.9355,1.933,1.9333,1.936,1.9367,1.9373,1.9373,1.9288,0,0,0,0,0,1.9418,1.9425,1.9406,1.9429,1.9427,1.9406,1.9408,1.9392,1.9385,1.9382,1.9369,1.9362,1.9363,1.9365,1.9366,1.9389,1.9384,1.9401,1.9407,1.9412,1.9414,1.9422,1.9429,1.936,1.936,1.9359,0,0,1.9444,1.9434,1.944,1.9438,1.9431,1.9437,1.9404,1.9413,1.9417,1.9383,1.9394,1.9385,1.9375,1.9393,1.94,1.9387,1.9432,1.9416,1.942,1.942,1.9426,1.9433,1.9438,1.9362,1.9361,1.9361,0,0,1.9496,1.949,1.9506,1.95,1.949,1.9476,1.948,1.9465,1.9457,1.9468,1.9442,1.9445,1.945,1.9442,1.9439,1.9484,1.9463,1.9485,1.9515,1.9524,1.9529,1.9533,1.9546,1.9552,1.9488,1.9488,1.9488,0,1.953,1.9539,1.9517,1.9527,1.9525,1.9494,1.9509,1.9504,1.9495,1.9493,1.9479,1.9481,1.9472,1.9486,1.9497,1.9497,1.9498,1.9486,1.953,1.9535,1.9538,1.955,1.9556,1.9491,1.949,1.949,1.949,0,1.958,1.9587,1.9601,1.9592,1.9592,1.9604,1.9582,1.9585,1.9568,1.9555,1.9564,1.9553,1.9549,1.9551,1.9536,1.9562,1.9553,1.9535,1.9509,1.9548,1.9558,1.9563,1.9494,1.9493,1.9493,1.9492,0,0,1.966,1.9637,1.9643,1.9636,1.9622,1.9626,1.9636,1.9632,1.9633,1.9627,1.9632,1.9635,1.9617,1.9613,1.9597,1.9604,1.9636,1.9584,1.9584,1.9592,1.966,1.9672,1.9678,1.9623,1.9624,1.9625,1.966,0,1.9706,1.9721,1.97,1.972,1.9724,1.9693,1.9701,1.9692,1.9679,1.9679,1.9665,1.9666,1.9644,1.9641,1.9647,1.9631,1.9649,1.9629,1.9625,1.9625,1.9626,1.9684,1.9698,1.9731,1.9664,1.9665,1.9665,0,1.9762,1.9757,1.9777,1.9758,1.9759,1.9766,1.9759,1.976,1.9748,1.9738,1.9733,1.9713,1.9718,1.9694,1.97,1.9686,1.9684,1.9675,1.9676,1.9673,1.9646,1.968,1.9742,1.9746,1.9672,1.9672,1.9671,0,1.9814,1.9813,1.9824,1.982,1.9799,1.9805,1.9796,1.9783,1.9781,1.9774,1.9772,1.9766,1.9762,1.9757,1.9735,1.972,1.9742,1.9717,1.9732,1.9732,1.9736,1.9736,1.9796,1.9739,1.9739,1.9739,1.9739,0,1.9865,1.9878,1.9846,1.9853,1.9865,1.984,1.9852,1.984,1.9828,1.983,1.9804,1.9806,1.9778,1.9776,1.9759,1.9764,1.9763,1.9753,1.9748,1.9754,1.9755,1.9751,1.9747,1.974,1.974,1.974,1.9739,0,1.9925,1.9905,1.9914,1.9893,1.9888,1.9898,1.9879,1.9883,1.9868,1.987,1.9869,1.9845,1.9841,1.9819,1.9811,1.9799,1.9809,1.9801,1.9813,1.9809,1.9824,1.9822,1.9882,1.9887,1.9829,1.983,1.983,0,1.9959,1.9967,1.9946,1.9946,1.9938,1.9938,1.9935,1.991,1.9908,1.9893,1.9898,1.9892,1.9886,1.9881,1.9862,1.9855,1.9844,1.9865,1.9843,1.9847,1.9841,1.9839,1.9838,1.987,1.987,1.9871,1.9872,0,2.0018,2.0007,2.0004,1.9997,1.9994,1.9987,1.9978,1.9979,1.9951,1.9949,1.9945,1.994,1.9931,1.9924,1.9913,1.9902,1.9881,1.9879,1.9881,1.9887,1.9892,1.9886,1.9824,1.9877,1.9877,1.9876,1.9876,1.9876,2.0064,2.0068,2.0054,2.005,2.0041,2.0033,2.0034,2.0019,2.0015,2.0005,1.999,1.9987,1.9972,1.9955,1.9945,1.9941,1.993,1.9934,1.9935,1.9936,1.9937,1.9895,1.994,1.9939,1.9939,1.9939,1.9939,0,2.0119,2.0108,2.0105,2.0093,2.0089,2.0071,2.0059,2.0057,2.0055,2.0043,2.0037,2.003,2.0023,2.0003,1.9993,1.9993,1.9983,1.9991,1.999,1.9987,1.995,1.9947,2.0,2.0,2.0,2.0,2.0,2.0,2.0148,2.0153,2.014,2.014,2.0128,2.0125,2.012,2.0111,2.0101,2.0095,2.0088,2.0075,2.0059,2.0047,2.0039,2.0033,2.0029,2.004,2.0031,1.9996,1.999,1.9985,1.9982,2.004,2.0041,2.0068,2.0068,2.0068]},{"header":{"parameterUnit":"m.s-1","parameterCategory":1,"la1":30.2991,"la2":30.254,"lo1":-89.0895,"lo2":-89.0444,"dy":0.0017,"dx":0.0017,"nx":28,"ny":28,"refTime":"2025-09-16T03:00:00:Z","depth":0,"parameterNumber":3,"parameterNumberName":"V-component_of_WINDS"},"data":[0,0,0,0,0,0,0,0,0,0,0,0,0,0,0,0,0,0,0,0,0,0,0,0,0,0,0,0,0,0,0,0,0,0,0,0,0,0,0,0,0,0,0,0,0,0,0,0,0,0,0,0,0,0,0,0,0,0,1.1921,1.1922,0,1.1998,1.1999,1.2,1.201,1.2009,1.2008,1.2007,1.2083,1.2085,1.2088,0,0,0,0,0,0,0,0,0,0,0,0,0,1.1777,1.178,1.1921,1.1922,1.1923,1.1998,1.1999,1.2,1.201,1.2009,1.2008,1.2007,1.2082,1.2085,1.2088,0,0,0,0,0,0,0,0,0,0,0,0,0,1.1845,1.1781,1.1921,1.1937,1.1939,1.1998,1.1999,1.2,1.201,1.2009,1.2008,1.2007,1.2081,1.2085,1.2089,1.2135,0,0,1.2101,1.2103,0,0,0,0,0,0,0,0,1.1842,1.1851,1.1934,1.1936,1.1939,1.1993,1.1976,1.2045,1.201,1.1983,1.2007,1.2006,1.2054,1.206,1.2076,1.2139,1.2142,1.2101,1.2104,1.2105,1.2107,0,0,0,0,0,0,0,1.1837,1.1847,1.1951,1.1935,1.1938,1.1939,1.1947,1.1989,1.2023,1.1985,1.1986,1.1995,1.2055,1.2073,1.2078,1.2143,1.2101,1.2105,1.2107,1.2109,1.2245,1.2246,0,0,0,0,0,0,1.183,1.1843,1.1949,1.1954,1.1886,1.1942,1.1952,1.1977,1.2023,1.2029,1.1996,1.1996,1.2066,1.2074,1.2081,1.2137,1.2105,1.2109,1.2112,1.2244,1.2245,1.2246,0,0,0,0,0,0,1.1827,1.1839,1.1946,1.1899,1.1913,1.1946,1.1974,1.1979,1.1997,1.2031,1.2037,1.2009,1.2066,1.2075,1.2121,1.214,1.2111,1.2115,1.2242,1.2244,1.2246,1.2251,0,0,0,0,0,0,1.1822,1.1838,1.1858,1.1899,1.1915,1.1987,1.1975,1.1981,1.2004,1.2004,1.2044,1.205,1.2066,1.2115,1.2125,1.2145,1.2118,1.2241,1.2243,1.2245,1.2249,1.2252,1.2255,0,0,0,0,0,1.1817,1.1856,1.1858,1.1871,1.194,1.1988,1.1997,1.2015,1.2006,1.2024,1.2046,1.2049,1.2136,1.212,1.2131,1.2152,1.224,1.2242,1.2245,1.2248,1.2252,1.2255,0,0,0,0,0,0,1.1815,1.1862,1.1865,1.1919,1.1949,1.1989,1.2014,1.2019,1.2052,1.205,1.207,1.2079,1.2124,1.2143,1.2124,1.2198,1.2187,1.2192,1.2185,1.2189,1.2192,1.2187,1.2121,0,0,0,0,0,1.182,1.1856,1.1895,1.1938,1.1953,1.1981,1.2002,1.2013,1.2045,1.2058,1.2083,1.2113,1.2147,1.2169,1.2203,1.2252,1.2259,1.2271,1.2274,1.2277,1.2281,1.2306,1.2311,1.2255,1.2255,1.2255,0,0,1.1832,1.1862,1.1884,1.1938,1.1963,1.1998,1.1992,1.203,1.2055,1.2064,1.2109,1.2128,1.2162,1.2209,1.2231,1.2226,1.2298,1.228,1.2282,1.2285,1.2309,1.2314,1.2319,1.2257,1.2257,1.2256,0,0,1.1872,1.1899,1.1937,1.1962,1.2,1.2018,1.2027,1.2066,1.2079,1.2125,1.2131,1.2161,1.222,1.2243,1.2263,1.2309,1.2311,1.2319,1.2335,1.2359,1.2364,1.2368,1.2382,1.2388,1.2323,1.2323,1.2323,0,1.1882,1.1936,1.1956,1.1993,1.2016,1.2025,1.2062,1.2085,1.2132,1.2146,1.214,1.2213,1.2237,1.2288,1.2299,1.2315,1.2325,1.2314,1.2362,1.2366,1.237,1.2384,1.239,1.2323,1.2323,1.2323,1.2323,0,1.1945,1.1983,1.2009,1.2054,1.2079,1.2116,1.2139,1.2162,1.2171,1.2188,1.2233,1.2262,1.23,1.2313,1.2322,1.2365,1.2361,1.2358,1.2347,1.2376,1.2389,1.2395,1.2324,1.2324,1.2324,1.2324,0,0,1.1987,1.2041,1.205,1.207,1.2111,1.214,1.2176,1.2214,1.2232,1.2264,1.2293,1.2341,1.2338,1.2361,1.2371,1.2393,1.2425,1.2387,1.2388,1.2392,1.2472,1.2473,1.248,1.2427,1.2428,1.2429,1.2469,0,1.203,1.2097,1.2114,1.217,1.2203,1.2212,1.2243,1.227,1.2287,1.2316,1.2334,1.2368,1.2362,1.2375,1.2397,1.2416,1.2441,1.2414,1.2452,1.2454,1.2443,1.2487,1.2489,1.2526,1.2474,1.2475,1.2476,0,1.2091,1.2123,1.2182,1.2218,1.2232,1.226,1.2295,1.2324,1.2354,1.2365,1.2388,1.2397,1.2432,1.2419,1.2467,1.2448,1.2464,1.2476,1.2478,1.2482,1.2466,1.2491,1.2538,1.2543,1.2485,1.2484,1.2483,0,1.2113,1.2172,1.2214,1.2231,1.2273,1.2292,1.231,1.234,1.2361,1.2391,1.2404,1.2438,1.2456,1.2481,1.2497,1.2486,1.2543,1.2531,1.2551,1.255,1.2562,1.2561,1.2612,1.2574,1.2574,1.2574,1.2574,0,1.216,1.2195,1.2224,1.2251,1.2289,1.2308,1.2345,1.2363,1.2389,1.2417,1.2426,1.2452,1.2472,1.25,1.2512,1.2549,1.2557,1.2565,1.2568,1.2564,1.2563,1.2575,1.2573,1.2575,1.2575,1.2575,1.2575,0,1.2192,1.2213,1.2259,1.2295,1.2305,1.2332,1.2362,1.2386,1.2403,1.2438,1.2447,1.2472,1.2505,1.2524,1.2565,1.2574,1.2614,1.2616,1.2604,1.2605,1.2623,1.2621,1.2683,1.2691,1.2649,1.2649,1.265,0,1.222,1.2247,1.2286,1.2306,1.2324,1.2356,1.2378,1.2396,1.2417,1.2452,1.2472,1.2506,1.2534,1.2586,1.2606,1.2637,1.264,1.2659,1.2644,1.2639,1.2638,1.2636,1.2638,1.2661,1.2662,1.2662,1.2662,0,1.2266,1.2275,1.2306,1.2341,1.2366,1.2394,1.2421,1.2436,1.2458,1.2481,1.2516,1.2537,1.2579,1.2612,1.2644,1.2661,1.2664,1.2667,1.2673,1.2669,1.266,1.2664,1.261,1.2665,1.2665,1.2665,1.2665,1.2664,1.2297,1.2321,1.2351,1.2385,1.2407,1.2432,1.2456,1.2475,1.2504,1.254,1.2548,1.2584,1.2611,1.2655,1.2672,1.2699,1.2695,1.2704,1.2706,1.2708,1.2708,1.2656,1.2705,1.2705,1.2705,1.2705,1.2705,0,1.2343,1.2362,1.2393,1.2431,1.2457,1.2459,1.2488,1.2509,1.2541,1.2566,1.2593,1.2631,1.2662,1.2685,1.2716,1.2733,1.2735,1.274,1.2739,1.2742,1.271,1.2702,1.2738,1.2738,1.2738,1.2738,1.2738,1.2738,1.237,1.241,1.2422,1.2472,1.2491,1.2526,1.2543,1.2564,1.2585,1.2627,1.2653,1.2668,1.2692,1.2724,1.2752,1.2758,1.2768,1.2773,1.2778,1.2748,1.2745,1.2741,1.2733,1.2775,1.2775,1.2808,1.2808,1.2808]}]]